Location: ČR
(50.0000°N, 15.0000°E)
Time: 06:44:45
(UTC+02:00)

A-11 Canister half - Pass Details

Date: 17 March 2026
Orbit: 1514 x 1685 km, 47.2° (Epoch: 18 April)

Event Time Altitude Azimuth Distance (km) Brightness Sun altitude
Rises 11:10:12 0° 175° (S) 4,792 12.5 37.2°
Reaches altitude 10° 11:15:11 10° 154° (SSE) 3,847 12.4 37.5°
Maximum altitude 11:19:56 15° 124° (SE) 3,515 11.7 37.7°
Drops below altitude 10° 11:24:44 10° 94° (E) 3,914 11.4 37.9°
Sets 11:29:51 0° 74° (ENE) 4,928 11.6 38.1°
